• In Hungary
  • List of Countries
  • For 7 days
  • Water Temperature
  • Satellite Maps
  • Weather Map
  • News
  • Weather Widgets
  • user-avatar
    Login

    Hourly Weather Vyrubovo

    Today, 16 July, Monday

    Time Temperature Precipitation Wind Pressure Humidity
    00:00 +21°C° 1.2 mm 2 mps 741 mmHg 88%
    01:00 +21°C° 0.1 mm 2 mps 741 mmHg 89%
    02:00 +20°C° 0.1 mm 2 mps 741 mmHg 89%
    03:00 +20°C° 0 mm 2 mps 741 mmHg 89%
    04:00 +20°C° 0.5 mm 2 mps 741 mmHg 90%
    05:00 +20°C° 0.5 mm 2 mps 741 mmHg 90%
    06:00 +21°C° 0.5 mm 3 mps 741 mmHg 90%
    07:00 +22°C° 0.2 mm 3 mps 741 mmHg 86%
    08:00 +25°C° 0.2 mm 4 mps 741 mmHg 81%
    09:00 +26°C° 0 mm 4 mps 741 mmHg 75%
    10:00 +28°C° 1 mm 4 mps 741 mmHg 70%
    11:00 +29°C° 1 mm 5 mps 741 mmHg 66%
    12:00 +30°C° 1 mm 5 mps 741 mmHg 61%
    13:00 +30°C° 0.9 mm 5 mps 740 mmHg 61%
    14:00 +30°C° 0.9 mm 5 mps 740 mmHg 62%
    15:00 +30°C° 0.9 mm 5 mps 740 mmHg 62%
    16:00 +29°C° 1.3 mm 5 mps 740 mmHg 67%
    17:00 +28°C° 1.3 mm 4 mps 740 mmHg 71%
    18:00 +27°C° 1.3 mm 4 mps 739 mmHg 76%
    19:00 +26°C° 0.6 mm 4 mps 739 mmHg 79%
    20:00 +25°C° 0.6 mm 4 mps 739 mmHg 82%
    21:00 +23°C° 0.6 mm 4 mps 739 mmHg 86%
    22:00 +23°C° 0.3 mm 4 mps 739 mmHg 87%
    23:00 +22°C° 0.3 mm 4 mps 739 mmHg 89%

    Tomorrow, 17 July, Tuesday

    Time Temperature Precipitation Wind Pressure Humidity
    00:00 +22°C° 0.3 mm 4 mps 739 mmHg 90%
    01:00 +21°C° 0.1 mm 4 mps 739 mmHg 91%
    02:00 +21°C° 0.1 mm 4 mps 739 mmHg 93%
    03:00 +20°C° 0.1 mm 4 mps 738 mmHg 94%
    04:00 +21°C° 0 mm 4 mps 738 mmHg 93%
    05:00 +21°C° 0 mm 4 mps 738 mmHg 93%
    06:00 +21°C° 0 mm 4 mps 738 mmHg 92%
    07:00 +21°C° 0.3 mm 4 mps 738 mmHg 90%
    08:00 +22°C° 0.3 mm 4 mps 738 mmHg 88%
    09:00 +22°C° 0.3 mm 4 mps 738 mmHg 86%
    10:00 +23°C° 0.4 mm 5 mps 737 mmHg 83%
    11:00 +25°C° 0.4 mm 5 mps 737 mmHg 80%
    12:00 +24°C° 0.4 mm 6 mps 737 mmHg 77%
    13:00 +25°C° 0.5 mm 5 mps 737 mmHg 78%
    14:00 +25°C° 0.5 mm 5 mps 737 mmHg 78%
    15:00 +25°C° 0.5 mm 5 mps 736 mmHg 79%
    16:00 +25°C° 0.5 mm 5 mps 736 mmHg 82%
    17:00 +23°C° 0.5 mm 5 mps 736 mmHg 85%
    18:00 +22°C° 0.5 mm 5 mps 736 mmHg 87%
    19:00 +22°C° 0.2 mm 5 mps 735 mmHg 89%
    20:00 +21°C° 0.2 mm 5 mps 735 mmHg 91%
    21:00 +20°C° 0.2 mm 4 mps 735 mmHg 93%
    22:00 +20°C° 0.2 mm 4 mps 735 mmHg 93%
    23:00 +20°C° 0.2 mm 5 mps 734 mmHg 94%

    Day after tomorrow, 18 July, Wednesday

    Time Temperature Precipitation Wind Pressure Humidity
    00:00 +20°C° 0.2 mm 5 mps 734 mmHg 95%
    01:00 +19°C° 0.2 mm 4 mps 734 mmHg 95%
    02:00 +19°C° 0.2 mm 4 mps 734 mmHg 95%
    03:00 +19°C° 0.2 mm 4 mps 734 mmHg 96%
    04:00 +19°C° 0.2 mm 3 mps 733 mmHg 96%
    05:00 +19°C° 0.2 mm 3 mps 733 mmHg 96%
    06:00 +19°C° 0.2 mm 3 mps 733 mmHg 96%
    07:00 +19°C° 0.1 mm 3 mps 733 mmHg 94%
    08:00 +20°C° 0.1 mm 3 mps 733 mmHg 91%
    09:00 +20°C° 0.1 mm 3 mps 734 mmHg 89%
    10:00 +21°C° 0.2 mm 3 mps 734 mmHg 87%
    11:00 +21°C° 0.2 mm 2 mps 734 mmHg 85%
    12:00 +23°C° 0.2 mm 2 mps 734 mmHg 83%
    13:00 +23°C° 0.6 mm 2 mps 734 mmHg 81%
    14:00 +24°C° 0.6 mm 2 mps 734 mmHg 79%
    15:00 +25°C° 0.6 mm 3 mps 735 mmHg 77%
    16:00 +24°C° 0.8 mm 3 mps 735 mmHg 78%
    17:00 +24°C° 0.8 mm 3 mps 735 mmHg 80%
    18:00 +24°C° 0.8 mm 3 mps 735 mmHg 82%
    19:00 +22°C° 0.4 mm 4 mps 735 mmHg 86%
    20:00 +21°C° 0.4 mm 4 mps 735 mmHg 90%
    21:00 +20°C° 0.4 mm 4 mps 735 mmHg 93%
    22:00 +19°C° 0.2 mm 4 mps 735 mmHg 94%
    23:00 +19°C° 0.2 mm 4 mps 736 mmHg 95%

    19 July, Thursday

    Time Temperature Precipitation Wind Pressure Humidity
    00:00 +19°C° 0.2 mm 4 mps 736 mmHg 95%
    01:00 +19°C° 0.1 mm 3 mps 736 mmHg 96%
    02:00 +19°C° 0.1 mm 3 mps 736 mmHg 96%
    03:00 +19°C° 0.1 mm 3 mps 736 mmHg 96%
    04:00 +19°C° 0 mm 3 mps 736 mmHg 96%
    05:00 +19°C° 0 mm 3 mps 736 mmHg 96%
    06:00 +19°C° 0 mm 3 mps 737 mmHg 96%
    07:00 +20°C° 0.1 mm 3 mps 737 mmHg 94%
    08:00 +20°C° 0.1 mm 3 mps 737 mmHg 92%
    09:00 +21°C° 0.1 mm 3 mps 737 mmHg 91%
    10:00 +22°C° 0.4 mm 4 mps 738 mmHg 87%
    11:00 +23°C° 0.4 mm 4 mps 738 mmHg 82%
    12:00 +26°C° 0.4 mm 4 mps 738 mmHg 78%
    13:00 +26°C° 1 mm 5 mps 738 mmHg 78%
    14:00 +26°C° 1 mm 5 mps 738 mmHg 77%
    15:00 +26°C° 1 mm 5 mps 739 mmHg 77%
    16:00 +26°C° 1 mm 5 mps 739 mmHg 79%
    17:00 +26°C° 1 mm 4 mps 739 mmHg 81%
    18:00 +26°C° 1 mm 4 mps 739 mmHg 83%
    19:00 +25°C° 0.3 mm 4 mps 739 mmHg 86%
    20:00 +23°C° 0.3 mm 4 mps 740 mmHg 88%
    21:00 +22°C° 0.3 mm 3 mps 740 mmHg 91%
    22:00 +21°C° 0.1 mm 3 mps 740 mmHg 91%
    23:00 +21°C° 0.1 mm 3 mps 740 mmHg 92%

    20 July, Friday

    Time Temperature Precipitation Wind Pressure Humidity
    00:00 +20°C° 0.1 mm 3 mps 740 mmHg 93%
    01:00 +20°C° 0 mm 3 mps 740 mmHg 93%
    02:00 +20°C° 0 mm 2 mps 741 mmHg 93%
    03:00 +19°C° 0 mm 2 mps 741 mmHg 94%
    04:00 +20°C° 0.2 mm 3 mps 741 mmHg 93%
    05:00 +20°C° 0.2 mm 3 mps 741 mmHg 93%
    06:00 +20°C° 0.2 mm 3 mps 741 mmHg 92%
    07:00 +22°C° 0.1 mm 3 mps 742 mmHg 88%
    08:00 +24°C° 0.1 mm 3 mps 742 mmHg 83%
    09:00 +26°C° 0.1 mm 3 mps 742 mmHg 79%
    10:00 +27°C° 1.2 mm 3 mps 742 mmHg 75%
    11:00 +27°C° 1.2 mm 4 mps 742 mmHg 71%
    12:00 +28°C° 1.2 mm 4 mps 742 mmHg 67%
    13:00 +29°C° 0.2 mm 4 mps 742 mmHg 65%
    14:00 +29°C° 0.2 mm 3 mps 742 mmHg 63%
    15:00 +30°C° 0.2 mm 3 mps 742 mmHg 61%
    16:00 +29°C° 0.5 mm 3 mps 742 mmHg 66%
    17:00 +29°C° 0.5 mm 2 mps 742 mmHg 70%
    18:00 +28°C° 0.5 mm 2 mps 742 mmHg 75%
    19:00 +27°C° 0.1 mm 2 mps 742 mmHg 79%
    20:00 +25°C° 0.1 mm 2 mps 742 mmHg 83%
    21:00 +24°C° 0.1 mm 2 mps 742 mmHg 86%
    22:00 +23°C° 0 mm 2 mps 742 mmHg 87%
    23:00 +23°C° 0 mm 2 mps 742 mmHg 88%

    21 July, Saturday

    Time Temperature Precipitation Wind Pressure Humidity
    00:00 +21°C° 0 mm 2 mps 742 mmHg 90%
    01:00 +21°C° 0 mm 2 mps 742 mmHg 91%
    02:00 +21°C° 0 mm 2 mps 742 mmHg 92%
    03:00 +20°C° 0 mm 2 mps 742 mmHg 93%
    04:00 +20°C° 0 mm 2 mps 742 mmHg 92%
    05:00 +21°C° 0 mm 2 mps 742 mmHg 92%
    06:00 +21°C° 0 mm 2 mps 742 mmHg 91%
    07:00 +24°C° 0.1 mm 2 mps 742 mmHg 85%
    08:00 +25°C° 0.1 mm 2 mps 742 mmHg 78%
    09:00 +27°C° 0.1 mm 2 mps 742 mmHg 72%
    10:00 +28°C° 0.7 mm 2 mps 742 mmHg 67%
    11:00 +29°C° 0.7 mm 2 mps 742 mmHg 62%
    12:00 +30°C° 0.7 mm 2 mps 742 mmHg 57%
    13:00 +30°C° 0.3 mm 2 mps 742 mmHg 57%
    14:00 +30°C° 0.3 mm 3 mps 742 mmHg 56%
    15:00 +31°C° 0.3 mm 3 mps 742 mmHg 56%
    16:00 +30°C° 0.3 mm 3 mps 742 mmHg 60%
    17:00 +30°C° 0.3 mm 2 mps 742 mmHg 65%
    18:00 +29°C° 0.3 mm 2 mps 742 mmHg 69%
    19:00 +28°C° 0.5 mm 2 mps 741 mmHg 74%
    20:00 +26°C° 0.5 mm 2 mps 741 mmHg 78%
    21:00 +24°C° 0.5 mm 2 mps 741 mmHg 82%
    22:00 +24°C° 0.5 mm 2 mps 741 mmHg 85%
    23:00 +23°C° 0.5 mm 2 mps 741 mmHg 87%
    Show more